Location: Unspecified
(0.0000°N, 0.0000°E)
Time: 19:33:35
(UTC+00:00)

DOVE 4 - Visible Passes

Search period start: 18 June 2018 00:00
Search period end: 28 June 2018 00:00
Orbit: 589 x 803 km, 97.7° (Epoch: 18 June)

Date Brightness Start Highest point End Pass type
(mag) Time Alt. Az. Time Alt. Az. Time Alt. Az.
18 Jun ? 03:46:44 10° NNE 03:51:32 70° NE 03:51:32 70° NE visible
19 Jun ? 02:52:23 10° ENE 02:54:00 14° E 02:54:00 14° E visible
19 Jun ? 04:28:00 10° NNW 04:32:41 34° WNW 04:32:45 34° W visible
20 Jun ? 03:31:00 10° NNE 03:35:14 44° ENE 03:35:14 44° ENE visible
20 Jun ? 05:13:00 10° WNW 05:13:18 10° WNW 05:13:36 10° W visible
21 Jun ? 04:11:40 10° N 04:16:26 51° WNW 04:16:26 51° WNW visible
22 Jun ? 03:15:32 10° NE 03:18:54 28° ENE 03:18:54 28° ENE visible
22 Jun ? 04:54:13 10° NW 04:57:22 16° WNW 04:57:39 16° W visible
23 Jun ? 03:55:35 10° N 04:00:07 67° N 04:00:07 67° N visible
24 Jun ? 03:00:26 10° NE 03:02:34 17° ENE 03:02:34 17° ENE visible
24 Jun ? 04:37:17 10° NNW 04:41:19 25° WNW 04:41:19 25° WNW visible
25 Jun ? 03:39:43 10° NNE 03:43:46 51° NE 03:43:46 51° NE visible
26 Jun ? 04:20:46 10° N 04:24:58 37° WNW 04:24:58 37° WNW visible
27 Jun ? 03:24:05 10° NNE 03:27:24 32° ENE 03:27:24 32° ENE visible
27 Jun ? 05:04:27 10° WNW 05:06:06 11° WNW 05:06:09 11° WNW visible
